Regional Weather Roundup
Issued by NWS

Home | Current Version | Previous Version | Graphics & Text | Print | Product List | Glossary On
Versions: 1 2 3 4 5 6 7 8 9 10 11 12 13 14 15 16 17 18 19 20 21 22 23 24 25 26 27 28 29 30 31 32 33 34 35 36 37 38 39 40 41 42 43 44 45 46 47 48 49 50
000
ASUS43 KLSX 281959
RWRMO

WEATHER SUMMARY FOR MISSOURI
NATIONAL WEATHER SERVICE SPRINGFIELD MO
300 PM CDT THU AUG 28 2014

NOTE: "FAIR" INDICATES FEW OR NO CLOUDS BELOW 12,000 FEET WITH NO
       SIGNIFICANT WEATHER AND/OR OBSTRUCTIONS TO VISIBILITY.
       CURRENT SKY AND/OR WEATHER CONDITIONS ARE NOT AVAILABLE FOR
       CHILLICOTHE AND FARMINGTON.

MOZ001>031-035>038-043-044-053-054-282100-
...NORTHERN AND WESTERN MISSOURI...

CITY           SKY/WX    TMP DP  RH WIND       PRES   REMARKS
KANSAS CTY INT PTSUNNY   92  70  48 S13G18    29.92F HX  97
KANSAS C DTWN  PTSUNNY   93  68  43 S12       29.90F HX  97
LEE`S SUMMIT   SUNNY     90  69  50 S12       29.94F HX  94
ST JOSEPH      MOSUNNY   89  74  60 S13       29.89F HX  98
KIRKSVILLE     PTSUNNY   80  74  81 VRB3      30.00R

$$
MOZ066>068-077>081-088>096-101>105-282100-
...SOUTHWEST MISSOURI...

CITY           SKY/WX    TMP DP  RH WIND       PRES   REMARKS
SPRINGFIELD    MOSUNNY   92  59  33 S9G21     29.97F HX  91
JOPLIN         MOSUNNY   93  62  35 S13       29.96F HX  93

$$
MOZ032>034-039>042-045>050-055>058-069>072-282100-
...CENTRAL MISSOURI...

CITY           SKY/WX    TMP DP  RH WIND       PRES   REMARKS
COLUMBIA       MOSUNNY   93  68  43 S13G20    29.96F HX  97
JEFFERSON CITY MOSUNNY   91  68  46 S7        29.94F HX  95
ROLLA          PTSUNNY   93  65  39 S13       29.97F HX  95
SEDALIA        MOSUNNY   91  70  49 SW9       29.96F HX  96
OSAGE BEACH    MOSUNNY   93  66  40 S10G17    29.96F HX  96

$$
MOZ051-052-059>065-282100-
...EAST CENTRAL MISSOURI...

CITY           SKY/WX    TMP DP  RH WIND       PRES   REMARKS
ST LOUIS INTL  MOSUNNY   90  72  55 SE9       29.98F HX  97
SPIRIT OF STL  MOSUNNY   89  72  56 CALM      29.96F HX  96
ST CHARLES     SUNNY     90  75  61 E6        29.96F HX 100

$$
MOZ072>076-082>087-097>100-106>115-282100-
...SOUTH CENTRAL AND SOUTHEAST MISSOURI...

CITY           SKY/WX    TMP DP  RH WIND       PRES   REMARKS
CAPE GIRARDEAU CLOUDY    90  72  55 CALM      29.96F HX  97
FARMINGTON     MOSUNNY   90  70  51 CALM      30.01F HX  95
POPLAR BLUFF   SUNNY     91  66  43 SW9       29.97F HX  93
WEST PLAINS    MOSUNNY   90  62  39 S10       30.01F HX  90

$$



USA.gov is the U.S. government's official web portal to all federal, state and local government web resources and services.